Hourly Data Report for January 19, 2017

All times are specified in Local Standard Time (LST). Add 1 hour to adjust for Daylight Saving Time where and when it is observed.

ST LEONARD CS
NEW BRUNSWICK

47°09'28.050" N
67°49'55.014" W
245.00 m
810I001
71019
WIY

Download Data

Hourly Data (January 2017)
Hourly Data Report for January 19, 2017
Temp Definition
°C
Dew Point Temp Definition
°C
Rel Hum Definition
%
Wind Dir Definition
10's deg

Wind Spd Definition
km/h
Visibility Definition
km
Stn Press Definition
kPa
Hmdx Definition


Wind Chill Definition


Weather Definition


TIME
00:00 -9.3 -12.0 80 13 11   98.68   -15 LegendNANA
01:00 -9.2 -11.9 81 13 12   98.60   -15 LegendNANA
02:00 -9.6 -10.5 93 13 12   98.51   -15 LegendNANA
03:00 -9.1 -9.9 94 14 16   98.47   -16 LegendNANA
04:00 -8.7 -9.4 95 15 13   98.41   -15 LegendNANA
05:00 -8.4 -9.0 95 15 10   98.36   -13 LegendNANA
06:00 -8.0 -8.6 95 15 14   98.31   -14 LegendNANA
07:00 -7.6 -8.2 95 16 16   98.29   -14 LegendNANA
08:00 -7.3 -7.9 96 16 12   98.29   -13 LegendNANA
09:00 -7.0 -7.6 96 16 11   98.27   -12 LegendNANA
10:00 -6.5 -7.1 96 17 12   98.23   -12 LegendNANA
11:00 -6.0 -6.6 95 16 14   98.21   -12 LegendNANA
12:00 -5.5 -6.1 96 17 9   98.16   -10 LegendNANA
13:00 -5.1 -5.6 96 20 8   98.10   -9 LegendNANA
14:00 -4.8 -5.3 96 22 7   98.08   -8 LegendNANA
15:00 -4.7 -5.2 96 22 4   98.11   -6 LegendNANA
16:00 -4.6 -5.1 96 19 4   98.11   -6 LegendNANA
17:00 -4.3 -4.8 97 18 4   98.14   -6 LegendNANA
18:00 -4.4 -4.8 97 19 4   98.15   -6 LegendNANA
19:00 -4.3 -4.7 97 13 5   98.20   -6 LegendNANA
20:00 -4.3 -4.7 97 17 3   98.23   -6 LegendNANA
21:00 -4.2 -4.5 97 30 2   98.25   -5 LegendNANA
22:00 -4.3 -4.6 98 0 1   98.26   -5 LegendNANA
23:00 -4.1 -4.3 98 29 5   98.31   -6 LegendNANA

Notes on Data Quality.

Legend

  • E = Estimated
  • M = Missing
  • NA = Not Available
  • ‡ = Partner data that is not subject to review by the National Climate Archives
Date modified: